FW5449 Weather Reports


time (UTC)temp
C
wind
direction
speed
KPH
gust
KPH
rain 1hr
cm
rain 24hr
cm
rain mn
cm
humidity
%
barometer
mb
20260906224647 19 311 3.2 8.0 0.00 1.07 1.07 71 1017.5
20260906224144 19 339 4.8 8.0 0.00 1.07 1.07 70 1017.5
20260906223647 19 307 4.8 11.3 0.00 1.07 1.07 69 1017.4
20260906223405 19 304 4.8 11.3 0.00 1.07 1.07 70 1017.4
20260906222635 19 355 4.8 11.3 0.00 1.07 1.07 71 1017.5
20260906222138 18 291 4.8 11.3 0.00 1.07 1.07 71 1017.5
20260906221623 18 281 4.8 9.7 0.00 1.07 1.07 75 1017.4
20260906221109 18 308 4.8 9.7 0.00 1.07 1.07 75 1017.3
20260906220602 18 266 4.8 11.3 0.00 1.07 1.07 76 1017.3
20260906220100 17 281 4.8 12.9 0.00 1.07 1.07 78 1017.2
20260906215600 17 328 4.8 12.9 0.00 1.07 1.07 79 1017.3
20260906215057 17 303 4.8 12.9 0.00 1.07 1.07 79 1017.3
20260906214558 17 258 4.8 9.7 0.00 1.07 1.07 80 1017.2
20260906214314 17 274 4.8 8.0 0.00 1.07 1.07 80 1017.3
20260906213559 17 261 4.8 11.3 0.00 1.07 1.07 79 1017.4
20260906213058 17 306 6.4 12.9 0.00 1.07 1.07 79 1017.3
20260906212557 17 286 6.4 12.9 0.00 1.07 1.07 79 1017.4
20260906212318 17 299 4.8 12.9 0.00 1.07 1.07 80 1017.3
20260906211556 17 328 4.8 12.9 0.00 1.07 1.07 81 1017.2
20260906211052 17 295 6.4 12.9 0.00 1.07 1.07 80 1017.1
20260906210549 17 249 4.8 12.9 0.00 1.07 1.07 80 1017.1
20260906210051 17 255 3.2 8.0 0.00 1.07 1.07 81 1017.1
20260906205551 17 307 4.8 12.9 0.00 1.07 1.07 80 1017.1
20260906205051 17 249 4.8 12.9 0.00 1.07 1.07 80 1017.1
20260906204552 17 286 4.8 12.9 0.00 1.07 1.07 81 1017.2
20260906204313 17 286 4.8 12.9 0.00 1.07 1.07 81 1017.2
20260906203815 17 245 4.8 11.3 0.00 1.07 1.07 80 1017.0
20260906203051 17 248 6.4 12.9 0.00 1.07 1.07 80 1017.0
20260906202549 17 249 6.4 12.9 0.00 1.07 1.07 80 1016.9
20260906202047 17 237 4.8 12.9 0.00 1.07 1.07 83 1016.8
20260906201549 17 241 4.8 11.3 0.00 1.07 1.07 83 1016.8
20260906201312 17 249 3.2 11.3 0.00 1.07 1.07 85 1016.7
20260906200548 17 201 4.8 8.0 0.03 1.07 1.07 86 1016.7
20260906200047 17 264 3.2 9.7 0.03 1.07 1.07 86 1016.7
20260906195547 16 223 4.8 9.7 0.03 1.07 1.07 86 1016.8
20260906195047 16 241 4.8 9.7 0.03 1.07 1.07 87 1016.8
20260906194542 16 149 3.2 9.7 0.03 1.07 1.07 88 1016.8
20260906194040 16 210 1.6 6.4 0.03 1.07 1.07 90 1016.9
20260906193800 16 251 1.6 6.4 0.03 1.07 1.07 90 1016.8
20260906193038 15 286 1.6 6.4 0.05 1.07 1.07 89 1016.9
20260906192538 15 255 1.6 6.4 0.05 1.07 1.07 90 1017.0
20260906192038 15 295 3.2 6.4 0.05 1.07 1.07 89 1017.0
20260906191537 15 272 3.2 6.4 0.08 1.07 1.07 89 1017.0
20260906191033 15 228 3.2 8.0 0.08 1.07 1.07 89 1016.9
20260906190532 15 272 3.2 8.0 0.05 1.04 1.04 89 1017.0
20260906190035 15 238 3.2 11.3 0.05 1.04 1.04 90 1017.0
20260906185533 15 251 4.8 11.3 0.05 1.04 1.04 90 1016.9
20260906185031 15 245 4.8 9.7 0.05 1.04 1.04 90 1016.9
20260906184532 15 291 4.8 9.7 0.05 1.04 1.04 90 1017.0
20260906184029 15 270 4.8 9.7 0.05 1.04 1.04 90 1017.0
20260906183528 15 238 4.8 9.7 0.05 1.04 1.04 90 1016.9
20260906183030 15 260 4.8 9.7 0.03 1.02 1.02 90 1016.8
20260906182530 15 301 3.2 9.7 0.03 1.02 1.02 89 1016.9
20260906182025 15 182 3.2 9.7 0.03 1.02 1.02 89 1016.8
20260906181524 15 177 3.2 6.4 0.00 0.99 0.99 88 1016.8
20260906181021 15 149 1.6 6.4 0.03 0.99 0.99 89 1016.9
20260906180739 15 159 3.2 6.4 0.03 0.99 0.99 89 1016.8
20260906180018 15 186 3.2 9.7 0.03 0.99 0.99 89 1016.7
20260906175513 15 153 3.2 9.7 0.03 0.99 0.99 89 1016.7
20260906175014 15 135 4.8 8.0 0.03 0.99 0.99 90 1016.5
20260906174504 15 125 3.2 6.4 0.03 0.99 0.99 90 1016.5
20260906174004 14 154 3.2 6.4 0.03 0.99 0.99 91 1016.5
20260906173502 14 154 3.2 6.4 0.03 0.99 0.99 92 1016.5
20260906173228 14 137 1.6 6.4 0.03 0.99 0.99 92 1016.5
20260906172947 14 175 1.6 6.4 0.03 0.99 0.99 92 1016.5
20260906171956 14 101 0.0 3.2 0.05 0.99 0.99 93 1016.4
20260906171454 13 245 0.0 3.2 0.05 0.99 0.99 93 1016.4
20260906170950 13 245 0.0 3.2 0.03 0.97 0.99 93 1016.5
20260906170452 13 245 0.0 3.2 0.05 0.97 0.97 93 1016.4
20260906165939 13 245 0.0 3.2 0.05 0.97 0.97 93 1016.4
20260906165433 13 245 0.0 1.6 0.05 0.97 0.97 93 1016.4
20260906165423 13 245 1.6 4.8 0.08 0.97 0.97 93 1016.3
20260906164435 13 246 1.6 4.8 0.08 0.97 0.97 93 1016.4
20260906163929 13 195 0.0 4.8 0.10 0.97 0.97 93 1016.2
20260906163427 13 170 0.0 1.6 0.13 0.97 0.97 93 1016.2
20260906162925 13 170 0.0 1.6 0.15 0.97 0.97 93 1016.0
20260906162413 13 172 0.0 1.6 0.18 0.97 0.97 93 1016.1
20260906161909 13 172 0.0 1.6 0.18 0.94 0.94 93 1016.1
20260906161620 13 172 0.0 4.8 0.23 0.94 0.94 93 1016.1
20260906160849 13 172 1.6 4.8 0.25 0.94 0.94 93 1016.0
20260906160339 13 166 1.6 4.8 0.25 0.91 0.91 93 1015.9
20260906155832 13 151 1.6 6.4 0.25 0.91 0.91 93 1015.9
20260906155330 13 157 1.6 6.4 0.28 0.91 0.91 93 1015.9
20260906154831 13 186 3.2 6.4 0.25 0.89 0.89 93 1016.0
20260906154325 13 160 3.2 6.4 0.25 0.86 0.89 93 1016.0
20260906154041 13 159 1.6 4.8 0.25 0.86 0.86 92 1016.0
20260906153633 13 178 1.6 4.8 0.25 0.84 0.84 92 1016.0
20260906153545 13 178 1.6 6.4 0.23 0.81 0.81 92 1016.0
20260906152307 13 201 3.2 6.4 0.20 0.79 0.79 92 1016.0
20260906151810 13 185 3.2 6.4 0.20 0.76 0.76 92 1015.9
20260906151255 13 187 3.2 6.4 0.15 0.71 0.71 92 1015.9
20260906150751 13 167 1.6 4.8 0.13 0.69 0.69 92 1016.0
20260906150250 13 297 0.0 1.6 0.10 0.66 0.66 92 1015.9
20260906145752 13 297 0.0 1.6 0.08 0.64 0.64 92 1015.9
20260906145252 13 297 0.0 3.2 0.08 0.64 0.64 92 1015.9
20260906144955 13 297 0.0 3.2 0.05 0.61 0.64 92 1016.0
20260906144239 13 297 1.6 4.8 0.05 0.61 0.61 92 1015.9
20260906143731 13 297 1.6 8.0 0.05 0.61 0.61 92 1016.0
20260906143231 13 274 3.2 8.0 0.03 0.58 0.58 91 1016.0
20260906142726 13 347 4.8 11.3 0.03 0.58 0.58 91 1015.9
20260906142228 13 308 6.4 14.5 0.03 0.58 0.58 91 1015.9
20260906141718 13 266 4.8 14.5 0.08 0.56 0.56 91 1015.9
20260906141216 13 318 3.2 8.0 0.20 0.56 0.56 91 1016.0
20260906140718 13 286 3.2 8.0 0.56 0.56 0.56 91 1015.9
20260906140216 13 286 3.2 8.0 0.56 0.56 0.56 91 1015.8
20260906135708 13 243 6.4 12.9 0.56 0.56 0.56 91 1015.7
20260906135207 13 229 8.0 14.5 0.56 0.56 0.56 90 1015.6
20260906134707 13 247 6.4 14.5 0.56 0.56 0.56 90 1015.5
20260906134203 13 265 3.2 12.9 0.56 0.56 0.56 90 1015.5
20260906133928 13 276 4.8 14.5 0.56 0.56 0.56 90 1015.5
20260906133201 13 262 6.4 14.5 0.56 0.56 0.56 90 1015.3
20260906132701 13 277 6.4 14.5 0.56 0.56 0.56 90 1015.1
20260906132202 13 235 8.0 16.1 0.56 0.56 0.56 90 1015.1
20260906131700 13 181 9.7 16.1 0.46 0.46 0.48 89 1015.0
20260906131159 13 183 8.0 14.5 0.36 0.36 0.36 89 1014.9
20260906130659 13 194 6.4 12.9 0.00 0.00 0.00 89 1014.9
20260906130422 13 210 4.8 11.3 0.00 0.00 0.00 89 1014.8
20260906125659 13 199 4.8 11.3 0.00 0.00 0.00 89 1014.8
20260906125410 13 237 6.4 11.3 0.00 0.00 0.00 89 1014.8
20260906124649 13 248 6.4 12.9 0.00 0.00 0.00 89 1014.9
20260906124147 13 250 6.4 12.9 0.00 0.00 0.00 88 1014.9
20260906123855 13 247 6.4 16.1 0.00 0.00 0.00 89 1015.0
20260906123124 13 247 6.4 16.1 0.00 0.00 0.00 89 1015.0
20260906122837 13 196 4.8 12.9 0.00 0.00 0.00 89 1014.9
20260906122100 13 236 4.8 6.4 0.00 0.00 0.00 89 1014.9
20260906121601 13 251 1.6 6.4 0.00 0.03 0.00 89 1014.8
20260906121324 13 244 1.6 4.8 0.00 0.03 0.00 89 1014.9
20260906120554 13 231 1.6 4.8 0.00 0.03 0.00 89 1014.9
20260906120316 13 235 1.6 4.8 0.00 0.03 0.00 88 1014.7
20260906115553 13 202 1.6 4.8 0.00 0.03 0.00 88 1014.7
20260906115051 13 210 1.6 4.8 0.00 0.03 0.00 89 1014.7
20260906114545 13 210 1.6 4.8 0.00 0.05 0.00 89 1014.8
20260906114042 13 193 1.6 4.8 0.00 0.05 0.00 89 1014.7
20260906113543 13 169 1.6 4.8 0.00 0.05 0.00 89 1014.7
20260906113037 13 169 3.2 6.4 0.00 0.05 0.00 89 1014.9
20260906112758 13 169 3.2 6.4 0.00 0.05 0.00 89 1014.8
20260906112306 13 166 3.2 6.4 0.00 0.05 0.00 89 1014.7
20260906111535 13 185 3.2 6.4 0.00 0.05 0.00 89 1014.7
20260906111031 13 192 3.2 6.4 0.00 0.05 0.00 89 1014.8
20260906110757 13 216 4.8 6.4 0.00 0.05 0.00 89 1014.8
20260906110029 13 207 4.8 6.4 0.00 0.05 0.00 89 1014.8
20260906105528 13 195 3.2 6.4 0.00 0.05 0.00 89 1014.9
20260906105029 13 196 1.6 4.8 0.00 0.05 0.00 89 1014.8
20260906105021 13 198 1.6 4.8 0.00 0.05 0.00 89 1014.8
20260906104030 13 168 3.2 8.0 0.00 0.05 0.00 88 1014.8
20260906103523 13 168 4.8 8.0 0.00 0.05 0.00 88 1014.8
20260906103014 13 161 3.2 6.4 0.00 0.05 0.00 88 1014.8
20260906102514 13 189 0.0 4.8 0.00 0.05 0.00 88 1014.8
20260906102010 13 239 0.0 1.6 0.00 0.05 0.00 88 1014.9
20260906101500 13 239 0.0 3.2 0.00 0.05 0.00 88 1014.8
20260906100948 13 239 3.2 6.4 0.00 0.05 0.00 88 1014.9
20260906100444 13 239 3.2 6.4 0.00 0.05 0.00 88 1014.9
20260906100207 13 239 1.6 4.8 0.00 0.05 0.00 88 1014.9
20260906095441 13 175 0.0 3.2 0.00 0.05 0.00 88 1014.9
20260906094941 13 175 0.0 3.2 0.00 0.05 0.00 88 1014.8
20260906094436 13 175 0.0 0.0 0.00 0.05 0.00 88 1014.8
20260906093933 13 175 0.0 0.0 0.00 0.05 0.00 88 1014.9
20260906093431 13 175 0.0 1.6 0.00 0.05 0.00 88 1014.8
20260906093359 13 175 0.0 3.2 0.00 0.05 0.00 88 1014.8
20260906092352 13 175 0.0 3.2 0.00 0.05 0.00 88 1014.7
20260906091829 13 175 1.6 4.8 0.00 0.05 0.00 88 1014.7
20260906091325 13 175 1.6 4.8 0.00 0.05 0.00 88 1014.7
20260906090822 13 175 1.6 4.8 0.00 0.05 0.00 87 1014.8
20260906090321 14 241 1.6 3.2 0.00 0.05 0.00 87 1014.8
20260906085815 14 241 0.0 3.2 0.00 0.05 0.00 87 1014.7
20260906085310 14 241 0.0 3.2 0.00 0.05 0.00 87 1014.8
20260906085026 14 241 0.0 3.2 0.00 0.05 0.00 87 1014.8
20260906084504 14 241 0.0 1.6 0.00 0.05 0.00 87 1014.9
20260906083739 14 241 0.0 1.6 0.00 0.05 0.00 87 1014.9
20260906083216 14 241 1.6 4.8 0.00 0.05 0.00 87 1014.8
20260906082709 14 241 1.6 4.8 0.00 0.05 0.00 87 1014.9
20260906082430 14 241 1.6 4.8 0.00 0.05 0.00 87 1014.9
20260906081655 14 241 0.0 4.8 0.00 0.05 0.00 87 1014.8
20260906081155 14 241 0.0 3.2 0.00 0.05 0.00 87 1014.9
20260906080919 14 241 0.0 4.8 0.00 0.05 0.00 87 1014.8
20260906080155 14 241 0.0 4.8 0.00 0.05 0.00 87 1014.9
20260906075641 14 241 0.0 1.6 0.00 0.05 0.00 87 1015.0
20260906075355 14 241 0.0 3.2 0.00 0.05 0.00 87 1014.8
20260906074820 14 241 0.0 3.2 0.00 0.05 0.00 87 1014.9
20260906074050 14 241 0.0 1.6 0.00 0.05 0.00 87 1014.8
20260906073543 14 241 1.6 4.8 0.00 0.05 0.00 87 1014.8
20260906073042 14 241 3.2 6.4 0.00 0.05 0.00 87 1014.8
20260906072545 14 252 1.6 4.8 0.00 0.05 0.00 87 1014.8
20260906072026 14 252 3.2 6.4 0.00 0.05 0.00 87 1014.8
20260906071528 14 244 3.2 6.4 0.00 0.05 0.00 86 1014.7
20260906071023 14 257 3.2 6.4 0.00 0.05 0.00 86 1014.7
20260906070522 15 266 1.6 6.4 0.00 0.05 0.00 86 1014.6
20260906070022 15 270 1.6 4.8 0.00 0.05 0.00 86 1014.6
20260906065520 15 270 1.6 4.8 0.00 0.05 0.05 86 1014.6
20260906065016 15 270 1.6 4.8 0.00 0.05 0.05 86 1014.7
20260906064511 15 270 1.6 4.8 0.00 0.05 0.05 85 1014.7
20260906064008 15 270 1.6 4.8 0.00 0.05 0.05 85 1014.7
20260906063502 15 197 0.0 4.8 0.00 0.05 0.05 85 1014.8
20260906063002 15 197 0.0 1.6 0.00 0.05 0.05 85 1014.8
20260906062455 15 197 0.0 3.2 0.00 0.05 0.05 85 1014.8
20260906062200 15 197 0.0 4.8 0.00 0.05 0.05 85 1014.8
20260906061440 15 197 1.6 4.8 0.00 0.05 0.05 85 1014.9
20260906060940 15 197 1.6 4.8 0.00 0.05 0.05 85 1014.9
20260906060440 15 197 1.6 4.8 0.00 0.05 0.05 84 1014.9
20260906055938 15 206 1.6 4.8 0.00 0.05 0.05 84 1014.9
20260906055439 15 211 0.0 3.2 0.00 0.05 0.05 84 1014.8
20260906054940 15 339 0.0 0.0 0.00 0.05 0.05 84 1014.8
20260906054436 15 339 0.0 0.0 0.00 0.05 0.05 83 1014.9
20260906053934 15 339 0.0 0.0 0.00 0.05 0.05 82 1014.9
20260906053433 16 339 0.0 0.0 0.00 0.05 0.05 81 1014.9
20260906052937 16 339 0.0 0.0 0.00 0.05 0.05 81 1014.9
20260906052428 16 339 0.0 0.0 0.00 0.05 0.05 82 1015.0
20260906051926 16 339 0.0 0.0 0.00 0.05 0.05 81 1015.0
20260906051405 16 339 0.0 0.0 0.00 0.05 0.05 81 1015.0
20260906050851 16 339 0.0 0.0 0.00 0.05 0.05 81 1015.0
20260906050342 16 339 0.0 0.0 0.00 0.05 0.05 81 1015.1
20260906045845 16 339 0.0 0.0 0.00 0.05 0.05 80 1015.1
20260906045340 16 339 0.0 0.0 0.00 0.05 0.05 80 1015.0
20260906044832 16 339 0.0 0.0 0.00 0.05 0.05 80 1015.1
20260906044319 16 339 0.0 1.6 0.00 0.05 0.05 79 1015.1
20260906043809 16 339 0.0 3.2 0.00 0.05 0.05 79 1015.2
20260906043506 16 339 1.6 4.8 0.00 0.05 0.05 79 1015.2
20260906042741 16 339 3.2 4.8 0.00 0.05 0.05 79 1015.2
20260906042240 16 332 1.6 4.8 0.00 0.05 0.05 78 1015.2
20260906041741 17 316 1.6 4.8 0.00 0.05 0.05 78 1015.2
20260906041234 17 18 1.6 3.2 0.00 0.05 0.05 77 1015.1
20260906040731 17 18 0.0 3.2 0.00 0.05 0.05 77 1015.1
20260906040222 17 18 0.0 1.6 0.00 0.05 0.05 77 1015.2
20260906035714 17 18 0.0 1.6 0.00 0.05 0.05 76 1015.1
20260906035219 17 18 0.0 3.2 0.00 0.05 0.05 76 1015.1
20260906034935 17 18 1.6 4.8 0.00 0.05 0.05 76 1015.0
20260906034153 17 18 1.6 4.8 0.00 0.05 0.05 76 1015.0
20260906033653 17 18 1.6 3.2 0.00 0.05 0.05 75 1014.9
20260906033412 17 18 1.6 4.8 0.00 0.05 0.05 75 1014.9
20260906032652 17 18 1.6 8.0 0.00 0.05 0.05 75 1014.8
20260906032152 18 351 1.6 8.0 0.00 0.05 0.05 74 1014.8
20260906031640 18 343 3.2 8.0 0.00 0.05 0.05 74 1014.5
20260906031129 18 339 4.8 9.7 0.00 0.05 0.05 73 1014.6
20260906030619 18 353 4.8 12.9 0.00 0.05 0.05 72 1014.4
20260906030328 18 317 4.8 12.9 0.00 0.05 0.05 72 1014.4
20260906025601 18 337 6.4 11.3 0.00 0.05 0.05 71 1014.4
20260906025058 18 341 4.8 11.3 0.00 0.05 0.05 71 1014.4
20260906024558 18 332 4.8 11.3 0.00 0.05 0.05 71 1014.3
20260906024058 18 247 6.4 14.5 0.00 0.05 0.05 70 1014.3
20260906023557 19 349 8.0 16.1 0.00 0.05 0.05 70 1014.3
20260906023054 19 355 8.0 16.1 0.00 0.05 0.05 69 1014.3
20260906022554 19 351 6.4 16.1 0.00 0.05 0.05 69 1014.3
20260906022054 19 340 6.4 16.1 0.00 0.05 0.05 68 1014.3
20260906021551 19 16 6.4 14.5 0.00 0.05 0.05 67 1014.4
20260906021315 20 4 8.0 14.5 0.00 0.05 0.05 67 1014.4
20260906020551 20 8 6.4 14.5 0.00 0.08 0.05 66 1014.3
20260906020050 20 355 6.4 16.1 0.00 0.08 0.05 65 1014.4
20260906020041 20 353 6.4 17.7 0.00 0.08 0.05 63 1014.3
20260906015046 20 357 8.0 17.7 0.00 0.10 0.05 63 1014.5
20260906014547 20 347 8.0 17.7 0.00 0.10 0.05 62 1014.4
20260906014046 21 346 8.0 16.1 0.00 0.10 0.05 62 1014.4
20260906013550 21 324 8.0 16.1 0.00 0.10 0.05 61 1014.5
20260906013048 21 37 6.4 16.1 0.00 0.13 0.05 59 1014.4
20260906012546 21 344 8.0 14.5 0.00 0.13 0.05 59 1014.3
20260906012045 21 17 8.0 14.5 0.00 0.13 0.05 58 1014.3
20260906011543 22 8 8.0 14.5 0.00 0.13 0.05 57 1014.2
20260906011043 22 14 6.4 14.5 0.00 0.13 0.05 57 1014.1
20260906010541 22 22 4.8 11.3 0.00 0.13 0.05 55 1014.1
20260906010041 22 357 3.2 11.3 0.00 0.13 0.05 52 1014.1
20260906005541 22 340 3.2 6.4 0.00 0.13 0.05 50 1014.2
20260906005042 23 25 4.8 9.7 0.00 0.13 0.05 50 1014.2
20260906005017 23 343 6.4 14.5 0.00 0.13 0.05 50 1014.1
20260906004032 23 312 6.4 14.5 0.00 0.13 0.05 50 1014.1
20260906003533 23 357 4.8 14.5 0.00 0.13 0.05 49 1014.1
20260906003033 23 3 4.8 12.9 0.00 0.15 0.05 48 1014.2
20260906002534 23 6 8.0 14.5 0.00 0.15 0.05 49 1014.2
20260906002028 23 318 8.0 16.1 0.00 0.18 0.05 49 1014.1
20260906001527 23 298 8.0 16.1 0.00 0.18 0.05 48 1014.1
20260906001026 23 248 6.4 14.5 0.00 0.18 0.05 45 1014.1
20260906000525 23 273 6.4 12.9 0.00 0.18 0.05 46 1014.1
20260906000024 23 345 4.8 12.9 0.00 0.20 0.05 45 1014.1
20260905235520 23 232 4.8 12.9 0.00 0.20 0.05 47 1014.0
20260905235013 23 237 6.4 14.5 0.00 0.20 0.05 45 1013.9
20260905234730 23 291 6.4 14.5 0.00 0.20 0.05 47 1014.0
20260905234013 23 281 6.4 16.1 0.00 0.20 0.05 46 1014.0
20260905233511 23 328 6.4 16.1 0.00 0.23 0.05 46 1014.1
20260905233010 23 343 4.8 11.3 0.00 0.23 0.05 45 1014.1
20260905232508 23 312 6.4 12.9 0.00 0.25 0.05 48 1014.2
20260905232446 23 238 4.8 12.9 0.00 0.28 0.05 48 1014.4
20260905231500 23 249 6.4 12.9 0.00 0.33 0.05 48 1014.6
20260905230957 23 230 6.4 12.9 0.00 0.36 0.05 49 1014.6
20260905230457 23 286 4.8 12.9 0.00 0.38 0.05 48 1014.6
20260905225958 23 281 3.2 9.7 0.00 0.41 0.05 48 1014.6
20260905225455 24 328 4.8 14.5 0.00 0.41 0.05 47 1014.7